STARLINK-34446

Last updated on Mon Oct 06 2025 00:02:05 GMT+0000 (Coordinated Universal Time)

1 65495U 25198D 25278.50001156 .00128899 00000+0 22944-2 0 9995 2 65495 53.1587 280.5069 0001098 72.8740 77.3912 15.49225023 5643

Satellite not in orbit

STARLINK-34446